Location: Lafig�re
(44.4503°N, 4.0357°E)
Time: 13:19:36
(UTC+00:00)

N. Korean satellite - Visible Passes

Search period start: 09 December 2021 00:00
Search period end: 19 December 2021 00:00
Orbit: 446 x 495 km, 97.3° (Epoch: 08 December)

Date Brightness Start Highest point End Pass type
(mag) Time Alt. Az. Time Alt. Az. Time Alt. Az.
09 Dec 9.6 04:03:29 10° ENE 04:05:18 14° E 04:07:07 10° SE visible
09 Dec 7.0 05:35:32 10° N 05:38:37 34° WNW 05:41:42 10° SW visible
10 Dec 6.2 05:06:45 10° N 05:10:09 85° W 05:13:32 10° SSW visible
10 Dec 9.9 17:17:22 10° WSW 17:18:55 12° W 17:20:28 10° WNW visible
11 Dec 7.8 04:41:40 38° ESE 04:41:40 38° ESE 04:44:44 10° SSE visible
11 Dec 8.5 06:15:45 11° W 06:15:45 11° W 06:16:08 10° W visible
11 Dec 8.9 16:47:10 10° SSW 16:50:10 27° W 16:53:09 10° NW visible
12 Dec 9.3 04:13:20 17° ESE 04:13:20 17° ESE 04:15:09 10° SE visible
12 Dec 7.9 05:47:27 21° WSW 05:47:27 21° WSW 05:49:00 10° SW visible
13 Dec 7.4 05:18:59 32° SSW 05:18:59 32° SSW 05:20:59 10° SSW visible
14 Dec 8.1 04:50:28 28° SSE 04:50:28 28° SSE 04:52:21 10° S visible
14 Dec9.206:24:34WSW06:24:34WSW06:18:02NNWvisible
14 Dec 9.3 16:54:57 10° SSW 16:57:40 22° W 17:00:24 10° NW visible
15 Dec 9.2 04:21:55 16° SE 04:21:55 16° SE 04:23:00 10° SE visible
15 Dec 8.7 05:56:00 11° WSW 05:56:00 11° WSW 05:56:13 10° WSW visible
16 Dec 8.4 05:27:24 17° SW 05:27:24 17° SW 05:28:21 10° SSW visible
17 Dec 8.5 04:58:46 19° S 04:58:46 19° S 04:59:52 10° S visible
17 Dec 9.5 17:02:45 10° SW 17:05:08 18° W 17:07:30 10° NW visible
18 Dec 9.3 04:30:05 14° SSE 04:30:05 14° SSE 04:30:43 10° SSE visible
18 Dec 8.1 16:33:10 10° S 16:36:23 39° W 16:39:36 10° NNW visible
